Location: Benque
(43.2594°N, 0.9178°E)
Time: 17:59:00
(UTC+00:00)

Cosmos 1271 Rocket - Pass Details

Date: 24 January 2020
Orbit: 499 x 545 km, 81.2° (Epoch: 22 February)

Event Time Altitude Azimuth Distance (km) Brightness Sun altitude
Rises 17:22:22 0° 207° (SSW) 2,578 7.1 -5.1°
Reaches altitude 10° 17:24:35 10° 216° (SW) 1,701 6.3 -5.4°
Maximum altitude 17:28:04 37° 285° (WNW) 793 4.2 -6.0°
Drops below altitude 10° 17:31:36 10° 354° (N) 1,725 5.2 -6.6°
Sets 17:33:52 0° 3° (N) 2,621 6.1 -7.0°
